CW2640 Weather Reports


Display with metric or nautical units.
time (UTC)temp
F
wind
direction
speed
MPH
gust
MPH
rain 1hr
in
rain 24hr
in
rain mn
in
humidity
%
barometer
mb
20260506034351 70 136 0.0 0.0 0.00 0.00 0.00 78 1011.9
20260506031350 70 136 0.0 0.0 0.00 0.00 0.00 76 1011.6
20260506024350 70 136 0.0 0.0 0.00 0.00 0.00 77 1011.2
20260506021349 70 137 0.0 0.0 0.00 0.00 0.00 77 1011.4
20260506014349 71 136 0.0 0.0 0.00 0.00 0.00 77 1011.3
20260506011348 71 137 0.0 0.0 0.00 0.00 0.00 75 1011.4
20260506004348 72 137 0.0 0.0 0.00 0.00 0.00 75 1011.7
20260506001344 72 137 0.0 0.0 0.00 0.00 0.00 73 1011.4
20260505234340 73 137 0.0 0.0 0.00 0.00 0.00 72 1011.5
20260505231335 73 136 0.0 0.0 0.00 0.00 0.00 70 1012.1
20260505224335 74 132 0.0 0.0 0.00 0.00 0.00 69 1012.0
20260505221332 74 130 0.0 0.0 0.00 0.00 0.00 68 1012.3
20260505214328 74 119 0.0 0.0 0.00 0.00 0.00 68 1012.2
20260505211327 75 118 0.0 0.0 0.00 0.00 0.00 66 1012.2
20260505204322 74 109 0.0 0.0 0.00 0.00 0.00 64 1012.5
20260505201320 75 88 0.0 0.0 0.00 0.00 0.00 62 1012.6
20260505194319 76 110 0.0 0.0 0.00 0.00 0.00 62 1013.0
20260505191315 76 98 0.0 0.0 0.00 0.00 0.00 63 1013.2
20260505184310 76 109 0.0 0.0 0.00 0.00 0.00 59 1013.8
20260505181308 75 97 0.0 0.0 0.00 0.00 0.00 59 1014.4
20260505174305 73 96 0.0 0.0 0.00 0.00 0.00 62 1014.5
20260505171300 73 102 0.0 0.0 0.00 0.00 0.00 65 1014.8
20260505164256 74 97 0.0 0.0 0.00 0.00 0.00 63 1014.9
20260505161252 71 110 0.0 0.0 0.00 0.00 0.00 68 1014.8
20260505151247 71 105 0.0 0.0 0.00 0.00 0.00 69 1015.2
20260505124233 57 80 0.0 0.0 0.00 0.00 0.00 93 1014.6
20260505121230 54 80 0.0 0.0 0.00 0.00 0.00 99 1014.2
20260505114229 52 80 0.0 0.0 0.00 0.00 0.00 99 1014.0
20260505111225 52 146 0.0 0.0 0.00 0.00 0.00 99 1013.1
20260505101217 53 170 0.0 0.0 0.00 0.00 0.00 98 1013.2
20260505094214 54 170 0.0 0.0 0.00 0.00 0.00 97 1013.2
20260505091209 55 170 0.0 0.0 0.00 0.00 0.00 95 1013.4
20260505084208 55 170 0.0 0.0 0.00 0.00 0.00 94 1013.6
20260505081205 55 170 0.0 0.0 0.00 0.00 0.00 94 1013.8
20260505074202 56 170 0.0 0.0 0.00 0.00 0.00 93 1013.8
20260505071201 56 170 0.0 0.0 0.00 0.00 0.00 93 1013.9
20260505064200 55 171 0.0 0.0 0.00 0.00 0.00 94 1013.7
20260505061159 55 176 0.0 0.0 0.00 0.00 0.00 92 1013.9
20260505054158 55 183 0.0 0.0 0.00 0.00 0.00 91 1014.1
20260505051153 56 188 0.0 0.0 0.00 0.00 0.00 89 1013.8
20260505041151 58 194 0.0 0.0 0.00 0.00 0.00 86 1013.8